Skip Page Navigation
NASA JPL Caltech
NASA Logo - Jet Propulsion Laboratory + View the NASA Portal
+ Center for Near-Earth Object Studies
JPL Home Earth Solar System Stars & Galaxies Technology
JPL Solar System Dynamics
BODIES ORBITS EPHEMERIDES TOOLS PHYSICAL DATA DISCOVERY FAQ SITE MAP
IMPORTANT: The SSD Announcement email list is now available. Major changes are coming in the near future, including possible hostname and/or URL changes. To be notified of such changes, subscribe to this email list.

Please visit this page for more details.


JPL Small-Body Database Browser
Search: [ help ]  
452870 (2006 SO313)
Classification: Main-belt Asteroid          SPK-ID: 2452870
Ephemeris | Orbit Diagram | Orbital Elements | Mission Design | Physical Parameters | Discovery Circumstances ]

[ show orbit diagram ]
Orbital Elements at Epoch 2458600.5 (2019-Apr-27.0) TDB
Reference: JPL 11 (heliocentric ecliptic J2000)
 Element Value Uncertainty (1-sigma)   Units 
e .2460584099917434 9.1966e-08  
a 2.642486127175965 2.3334e-08 au
q 1.992280192297808 2.3556e-07 au
i 2.595461559699124 9.2332e-06 deg
node 153.9149176301999 0.00032625 deg
peri 188.2627753717632 0.00032946 deg
M 353.6108103175046 4.3313e-05 deg
tp 2458628.345869388481
(2019-May-24.84586939)
0.00018894 TDB
period 1568.980336789415
4.30
2.0782e-05
5.69e-08
d
yr
n .2294483822127839 3.0392e-09 deg/d
Q 3.292692062054123 2.9076e-08 au
  Orbit Determination Parameters
   # obs. used (total)      91  
   data-arc span      4792 days (13.12 yr)  
   first obs. used      2006-09-17  
   last obs. used      2019-10-31  
   planetary ephem.      DE431  
   SB-pert. ephem.      SB431-N16  
   condition code      0  
   norm. resid. RMS      .52406  
   source      ORB  
   producer      Otto Matic  
   solution date      2019-Nov-08 16:51:36  

Additional Information
 Earth MOID = .983329 au 
 Jupiter MOID = 2.11591 au 
 T_jup = 3.349 
[ show covariance matrix ]

Ephemeris | Orbit Diagram | Orbital Elements | Mission Design | Physical Parameters | Discovery Circumstances ]

Physical Parameter Table
Parameter Symbol Value Units Sigma Reference Notes
absolute magnitude H 17.4   n/a MPO413517  
diameter diameter 1.856 km 0.300 urn:nasa:pds:neowise_diameters_albedos::2.0[mainbelt] (http://adsabs.harvard.edu/abs/2011ApJ...741...68M)  
geometric albedo albedo 0.062   0.026 urn:nasa:pds:neowise_diameters_albedos::2.0[mainbelt] (http://adsabs.harvard.edu/abs/2011ApJ...741...68M)  

452870 (2006 SO313)          Discovered 2006-Sep-27 by Spacewatch at Kitt Peak
Reference: Last Updated: 2016-01-04
Ephemeris | Orbit Diagram | Orbital Elements | Mission Design | Physical Parameters | Discovery Circumstances ]
ABOUT SSD CREDITS/AWARDS PRIVACY/COPYRIGHT GLOSSARY LINKS
FirstGov 2019-Dec-13 03:08 UT
(server date/time)  
NASA Home Page
Site Manager:   Ryan S. Park
Webmaster  Alan B. Chamberlin